Time,TemperatureF,DewpointF,PressureIn,WindDirection,WindDirectionDegrees,WindSpeedMPH,WindSpeedGustMPH,Humidity,HourlyPrecipIn,Conditions,Clouds,dailyrainin,SoftwareType,DateUTC
2013-06-12 00:05:00,60.2,57.0,29.89,NE,51,0.0,-999.0,89,-99.99,,,0.00,weatherlink.com 1.10,2013-06-12 04:05:00,
2013-06-12 00:20:00,59.6,57.0,29.89,NE,51,0.0,-999.0,91,-99.99,,,0.00,weatherlink.com 1.10,2013-06-12 04:20:00,
2013-06-12 00:35:00,58.8,57.0,29.89,NE,51,0.0,-999.0,92,-99.99,,,0.00,weatherlink.com 1.10,2013-06-12 04:35:00,
2013-06-12 00:50:00,58.1,56.0,29.89,NE,51,0.0,-999.0,93,-99.99,,,0.00,weatherlink.com 1.10,2013-06-12 04:50:00,
2013-06-12 01:05:00,58.0,56.0,29.90,NE,51,0.0,-999.0,94,-99.99,,,0.00,weatherlink.com 1.10,2013-06-12 05:05:00,
2013-06-12 01:20:00,57.4,56.0,29.90,NE,51,0.0,-999.0,95,-99.99,,,0.00,weatherlink.com 1.10,2013-06-12 05:20:00,
2013-06-12 01:35:00,57.5,56.0,29.90,NE,51,0.0,-999.0,95,-99.99,,,0.00,weatherlink.com 1.10,2013-06-12 05:35:00,
2013-06-12 01:50:00,57.5,56.0,29.90,NE,51,0.0,-999.0,96,-99.99,,,0.00,weatherlink.com 1.10,2013-06-12 05:50:00,
2013-06-12 02:05:00,57.6,57.0,29.89,NE,51,0.0,-999.0,97,-99.99,,,0.00,weatherlink.com 1.10,2013-06-12 06:05:00,
2013-06-12 02:20:00,57.7,57.0,29.88,NE,51,0.0,-999.0,97,-99.99,,,0.00,weatherlink.com 1.10,2013-06-12 06:20:00,
2013-06-12 02:35:00,57.7,57.0,29.90,NE,51,0.0,-999.0,97,-99.99,,,0.00,weatherlink.com 1.10,2013-06-12 06:35:00,
2013-06-12 02:50:00,57.7,57.0,29.91,NE,51,0.0,-999.0,97,-99.99,,,0.00,weatherlink.com 1.10,2013-06-12 06:50:00,
2013-06-12 03:05:00,57.5,57.0,29.91,NE,51,0.0,-999.0,97,-99.99,,,0.00,weatherlink.com 1.10,2013-06-12 07:05:00,
2013-06-12 03:20:00,57.2,56.0,29.90,NE,51,0.0,-999.0,97,-99.99,,,0.00,weatherlink.com 1.10,2013-06-12 07:20:00,
2013-06-12 03:35:00,56.7,56.0,29.90,NE,51,0.0,-999.0,97,-99.99,,,0.00,weatherlink.com 1.10,2013-06-12 07:35:00,
2013-06-12 03:51:00,56.5,56.0,29.90,NE,51,0.0,-999.0,98,-99.99,,,0.00,weatherlink.com 1.10,2013-06-12 07:51:00,
2013-06-12 04:06:00,56.0,56.0,29.90,NE,51,0.0,-999.0,98,-99.99,,,0.00,weatherlink.com 1.10,2013-06-12 08:06:00,
2013-06-12 04:21:00,55.6,55.0,29.90,NE,51,0.0,-999.0,98,-99.99,,,0.00,weatherlink.com 1.10,2013-06-12 08:21:00,
2013-06-12 04:36:00,55.2,55.0,29.90,NE,51,0.0,-999.0,98,-99.99,,,0.00,weatherlink.com 1.10,2013-06-12 08:36:00,
2013-06-12 04:51:00,54.9,54.0,29.90,NE,51,0.0,-999.0,98,-99.99,,,0.00,weatherlink.com 1.10,2013-06-12 08:51:00,
2013-06-12 05:06:00,55.5,55.0,29.90,NE,51,0.0,-999.0,99,-99.99,,,0.00,weatherlink.com 1.10,2013-06-12 09:06:00,
2013-06-12 05:21:00,54.6,54.0,29.90,NE,51,0.0,-999.0,98,-99.99,,,0.00,weatherlink.com 1.10,2013-06-12 09:21:00,
2013-06-12 05:36:00,54.1,54.0,29.91,NE,51,0.0,-999.0,98,-99.99,,,0.00,weatherlink.com 1.10,2013-06-12 09:36:00,
2013-06-12 05:51:00,53.9,53.0,29.91,NE,51,0.0,-999.0,98,-99.99,,,0.00,weatherlink.com 1.10,2013-06-12 09:51:00,
2013-06-12 06:06:00,53.4,53.0,29.92,NE,51,0.0,-999.0,98,-99.99,,,0.00,weatherlink.com 1.10,2013-06-12 10:06:00,
2013-06-12 06:21:00,53.9,54.0,29.93,NE,51,0.0,-999.0,99,-99.99,,,0.00,weatherlink.com 1.10,2013-06-12 10:21:00,
2013-06-12 06:36:00,54.4,54.0,29.93,NE,51,0.0,-999.0,99,-99.99,,,0.00,weatherlink.com 1.10,2013-06-12 10:36:00,
2013-06-12 06:51:00,55.5,55.0,29.94,NE,51,0.0,-999.0,99,-99.99,,,0.00,weatherlink.com 1.10,2013-06-12 10:51:00,
2013-06-12 07:06:00,56.6,57.0,29.95,NE,51,0.0,-999.0,100,-99.99,,,0.00,weatherlink.com 1.10,2013-06-12 11:06:00,
2013-06-12 07:21:00,58.0,58.0,29.95,NE,51,0.0,-999.0,100,-99.99,,,0.00,weatherlink.com 1.10,2013-06-12 11:21:00,
2013-06-12 07:36:00,59.3,59.0,29.95,NE,51,0.0,-999.0,100,-99.99,,,0.00,weatherlink.com 1.10,2013-06-12 11:36:00,
2013-06-12 07:51:00,61.5,62.0,29.95,ENE,57,1.0,-999.0,100,-99.99,,,0.00,weatherlink.com 1.10,2013-06-12 11:51:00,
2013-06-12 08:06:00,62.7,63.0,29.95,ENE,74,0.0,-999.0,99,-99.99,,,0.00,weatherlink.com 1.10,2013-06-12 12:06:00,
2013-06-12 08:21:00,64.3,63.0,29.96,NE,51,0.0,-999.0,95,-99.99,,,0.00,weatherlink.com 1.10,2013-06-12 12:21:00,
2013-06-12 08:36:00,66.3,62.0,29.96,East,92,0.0,-999.0,87,-99.99,,,0.00,weatherlink.com 1.10,2013-06-12 12:36:00,
2013-06-12 08:51:00,67.8,60.0,29.97,ENE,59,0.0,-999.0,77,-99.99,,,0.00,weatherlink.com 1.10,2013-06-12 12:51:00,
2013-06-12 09:06:00,68.4,60.0,29.96,NE,56,2.0,-999.0,75,-99.99,,,0.00,weatherlink.com 1.10,2013-06-12 13:06:00,
2013-06-12 09:21:00,69.2,60.0,29.96,SE,128,0.0,-999.0,73,-99.99,,,0.00,weatherlink.com 1.10,2013-06-12 13:21:00,
2013-06-12 09:36:00,69.0,61.0,29.97,NE,54,0.0,-999.0,75,-99.99,,,0.00,weatherlink.com 1.10,2013-06-12 13:36:00,
2013-06-12 09:51:00,68.7,60.0,29.97,NNE,21,0.0,-999.0,74,-99.99,,,0.00,weatherlink.com 1.10,2013-06-12 13:51:00,
2013-06-12 10:06:00,69.8,61.0,29.95,NE,44,0.0,-999.0,74,-99.99,,,0.00,weatherlink.com 1.10,2013-06-12 14:06:00,
2013-06-12 10:21:00,69.6,59.0,29.96,ESE,117,0.0,-999.0,70,-99.99,,,0.00,weatherlink.com 1.10,2013-06-12 14:21:00,
2013-06-12 10:36:00,70.1,59.0,29.96,East,86,0.0,-999.0,67,-99.99,,,0.00,weatherlink.com 1.10,2013-06-12 14:36:00,
2013-06-12 10:51:00,69.8,61.0,29.96,North,360,0.0,-999.0,73,-99.99,,,0.00,weatherlink.com 1.10,2013-06-12 14:51:00,
2013-06-12 11:06:00,71.0,60.0,29.96,NE,36,0.0,-999.0,68,-99.99,,,0.00,weatherlink.com 1.10,2013-06-12 15:06:00,
2013-06-12 11:22:00,69.7,60.0,29.96,North,11,4.0,-999.0,72,-99.99,,,0.00,weatherlink.com 1.10,2013-06-12 15:22:00,
2013-06-12 11:37:00,69.0,60.0,29.96,NNE,13,0.0,-999.0,72,-99.99,,,0.00,weatherlink.com 1.10,2013-06-12 15:37:00,
2013-06-12 11:52:00,70.5,60.0,29.97,NNE,32,0.0,-999.0,70,-99.99,,,0.00,weatherlink.com 1.10,2013-06-12 15:52:00,
2013-06-12 12:07:00,69.6,60.0,29.97,North,360,3.0,-999.0,71,-99.99,,,0.00,weatherlink.com 1.10,2013-06-12 16:07:00,
2013-06-12 12:22:00,69.7,60.0,29.96,NE,46,2.0,-999.0,71,-99.99,,,0.00,weatherlink.com 1.10,2013-06-12 16:22:00,
2013-06-12 12:37:00,70.5,59.0,29.96,North,5,2.0,-999.0,68,-99.99,,,0.00,weatherlink.com 1.10,2013-06-12 16:37:00,
2013-06-12 12:52:00,70.5,58.0,29.95,North,360,5.0,-999.0,65,-99.99,,,0.00,weatherlink.com 1.10,2013-06-12 16:52:00,
2013-06-12 13:07:00,72.0,59.0,29.94,NE,48,1.0,-999.0,63,-99.99,,,0.00,weatherlink.com 1.10,2013-06-12 17:07:00,
2013-06-12 13:22:00,72.8,58.0,29.92,ENE,60,3.0,-999.0,60,-99.99,,,0.00,weatherlink.com 1.10,2013-06-12 17:22:00,
2013-06-12 13:37:00,74.4,58.0,29.92,NE,55,3.0,-999.0,56,-99.99,,,0.00,weatherlink.com 1.10,2013-06-12 17:37:00,
2013-06-12 13:52:00,74.8,58.0,29.92,NE,38,4.0,-999.0,57,-99.99,,,0.00,weatherlink.com 1.10,2013-06-12 17:52:00,
2013-06-12 14:07:00,74.6,58.0,29.91,NE,41,4.0,-999.0,56,-99.99,,,0.00,weatherlink.com 1.10,2013-06-12 18:07:00,
2013-06-12 14:22:00,72.8,57.0,29.91,North,5,6.0,-999.0,57,-99.99,,,0.00,weatherlink.com 1.10,2013-06-12 18:22:00,
2013-06-12 14:37:00,73.1,56.0,29.92,NE,49,2.0,-999.0,55,-99.99,,,0.00,weatherlink.com 1.10,2013-06-12 18:37:00,
2013-06-12 14:52:00,72.5,56.0,29.92,NE,50,0.0,-999.0,57,-99.99,,,0.00,weatherlink.com 1.10,2013-06-12 18:52:00,
2013-06-12 15:07:00,73.2,56.0,29.92,NE,49,5.0,-999.0,55,-99.99,,,0.00,weatherlink.com 1.10,2013-06-12 19:07:00,
2013-06-12 15:22:00,73.5,58.0,29.91,NE,51,0.0,-999.0,58,-99.99,,,0.00,weatherlink.com 1.10,2013-06-12 19:22:00,
2013-06-12 15:37:00,74.6,56.0,29.89,NE,46,1.0,-999.0,53,-99.99,,,0.00,weatherlink.com 1.10,2013-06-12 19:37:00,
2013-06-12 15:52:00,74.8,58.0,29.89,ENE,67,0.0,-999.0,57,-99.99,,,0.00,weatherlink.com 1.10,2013-06-12 19:52:00,
2013-06-12 16:07:00,74.6,57.0,29.87,NE,55,0.0,-999.0,55,-99.99,,,0.00,weatherlink.com 1.10,2013-06-12 20:07:00,
2013-06-12 16:22:00,75.4,57.0,29.86,East,85,0.0,-999.0,53,-99.99,,,0.00,weatherlink.com 1.10,2013-06-12 20:22:00,
2013-06-12 16:52:00,76.2,58.0,29.87,ENE,58,3.0,-999.0,53,-99.99,,,0.00,weatherlink.com 1.10,2013-06-12 20:52:00,
2013-06-12 17:07:00,74.9,57.0,29.89,North,5,0.0,-999.0,54,-99.99,,,0.00,weatherlink.com 1.10,2013-06-12 21:07:00,
2013-06-12 17:22:00,73.8,56.0,29.88,NE,49,3.0,-999.0,54,-99.99,,,0.00,weatherlink.com 1.10,2013-06-12 21:22:00,
2013-06-12 17:37:00,73.6,56.0,29.88,NE,46,0.0,-999.0,54,-99.99,,,0.00,weatherlink.com 1.10,2013-06-12 21:37:00,
2013-06-12 17:52:00,74.1,56.0,29.87,ENE,71,0.0,-999.0,54,-99.99,,,0.00,weatherlink.com 1.10,2013-06-12 21:52:00,
2013-06-12 18:07:00,74.4,57.0,29.86,ENE,60,0.0,-999.0,55,-99.99,,,0.00,weatherlink.com 1.10,2013-06-12 22:07:00,
2013-06-12 18:22:00,74.0,59.0,29.85,East,98,0.0,-999.0,59,-99.99,,,0.00,weatherlink.com 1.10,2013-06-12 22:22:00,
2013-06-12 18:37:00,74.2,60.0,29.84,SSE,148,0.0,-999.0,61,-99.99,,,0.00,weatherlink.com 1.10,2013-06-12 22:37:00,
2013-06-12 18:52:00,72.7,60.0,29.83,SE,128,2.0,-999.0,65,-99.99,,,0.00,weatherlink.com 1.10,2013-06-12 22:52:00,
2013-06-12 19:07:00,72.0,60.0,29.83,ESE,119,0.0,-999.0,67,-99.99,,,0.00,weatherlink.com 1.10,2013-06-12 23:07:00,
2013-06-12 19:22:00,71.5,59.0,29.83,East,90,1.0,-999.0,66,-99.99,,,0.00,weatherlink.com 1.10,2013-06-12 23:22:00,
2013-06-12 19:37:00,70.3,59.0,29.84,ESE,105,0.0,-999.0,67,-99.99,,,0.00,weatherlink.com 1.10,2013-06-12 23:37:00,
2013-06-12 19:52:00,69.5,60.0,29.84,ESE,105,0.0,-999.0,71,-99.99,,,0.00,weatherlink.com 1.10,2013-06-12 23:52:00,
2013-06-12 20:07:00,69.1,61.0,29.84,ESE,105,0.0,-999.0,74,-99.99,,,0.00,weatherlink.com 1.10,2013-06-13 00:07:00,
2013-06-12 20:22:00,68.4,61.0,29.84,ESE,105,0.0,-999.0,76,-99.99,,,0.00,weatherlink.com 1.10,2013-06-13 00:22:00,
2013-06-12 20:37:00,67.6,61.0,29.83,ESE,105,0.0,-999.0,80,-99.99,,,0.00,weatherlink.com 1.10,2013-06-13 00:37:00,
2013-06-12 20:52:00,66.3,62.0,29.82,ESE,105,0.0,-999.0,86,-99.99,,,0.00,weatherlink.com 1.10,2013-06-13 00:52:00,
2013-06-12 21:07:00,65.5,62.0,29.82,ESE,105,0.0,-999.0,89,-99.99,,,0.00,weatherlink.com 1.10,2013-06-13 01:07:00,
2013-06-12 21:22:00,65.3,62.0,29.81,ESE,105,0.0,-999.0,89,-99.99,,,0.00,weatherlink.com 1.10,2013-06-13 01:22:00,
2013-06-12 21:37:00,65.3,62.0,29.81,ESE,105,0.0,-999.0,88,-99.99,,,0.00,weatherlink.com 1.10,2013-06-13 01:37:00,
2013-06-12 21:52:00,65.4,62.0,29.82,ESE,105,0.0,-999.0,87,-99.99,,,0.00,weatherlink.com 1.10,2013-06-13 01:52:00,
2013-06-12 22:07:00,65.1,62.0,29.82,ESE,105,0.0,-999.0,88,-99.99,,,0.00,weatherlink.com 1.10,2013-06-13 02:07:00,
2013-06-12 22:23:00,65.0,62.0,29.81,ESE,105,0.0,-999.0,89,-99.99,,,0.00,weatherlink.com 1.10,2013-06-13 02:23:00,
2013-06-12 22:38:00,65.0,62.0,29.81,ESE,105,0.0,-999.0,89,-99.99,,,0.00,weatherlink.com 1.10,2013-06-13 02:38:00,
2013-06-12 22:53:00,65.6,62.0,29.80,ESE,105,0.0,-999.0,88,-99.99,,,0.00,weatherlink.com 1.10,2013-06-13 02:53:00,
2013-06-12 23:09:00,65.8,62.0,29.80,ESE,104,0.0,-999.0,88,-99.99,,,0.00,weatherlink.com 1.10,2013-06-13 03:09:00,
2013-06-12 23:23:00,65.5,62.0,29.80,ESE,104,0.0,-999.0,88,-99.99,,,0.00,weatherlink.com 1.10,2013-06-13 03:23:00,
2013-06-12 23:38:00,64.3,61.0,29.78,ESE,104,0.0,-999.0,90,-99.99,,,0.00,weatherlink.com 1.10,2013-06-13 03:38:00,
2013-06-12 23:53:00,64.1,62.0,29.78,ESE,104,0.0,-999.0,91,-99.99,,,0.00,weatherlink.com 1.10,2013-06-13 03:53:00,